Regional Weather Roundup
Issued by NWS

Home | Current Version | Previous Version | Graphics & Text | Print | Product List | Glossary On
Versions: 1 2 3 4 5 6 7 8 9 10 11 12 13 14 15 16 17 18 19 20 21 22 23 24 25 26 27 28 29 30 31 32 33 34 35 36 37 38 39 40 41 42 43 44 45 46 47 48 49 50
451
ASUS45 KCYS 271610
RWRWY

WYOMING REGIONAL WEATHER ROUNDUP
NATIONAL WEATHER SERVICE CHEYENNE WY
1000 AM MDT TUE SEP 27 2016

NOTE:  "FAIR" INDICATES FEW OR NO CLOUDS BELOW 12,000 FEET
WITH NO SIGNIFICANT WEATHER AND/OR OBSTRUCTIONS TO VISIBILITY.

WYZ001-271700-
YELLOWSTONE NATIONAL PARK

CITY           SKY/WX    TMP DP  RH WIND       PRES   REMARKS
LK YELLOWSTONE   N/A     44  43  96 CALM      30.42S
W YELLOWSTONE  NOT AVBL

$$
WYZ002>013-054>058-071-098>099-271700-
NORTHERN WYOMING

CITY           SKY/WX    TMP DP  RH WIND       PRES   REMARKS
JACKSON        SUNNY     46  39  76 CALM      30.38F
CODY           FAIR      64  46  52 NW3       30.21S
GREYBULL       FAIR      55  48  77 CALM      30.19R
WORLAND        FAIR      55  48  77 CALM      30.19S
SHERIDAN       FAIR      69  51  52 CALM      30.12S
BUFFALO        FAIR      73  32  22 S3        30.18S
GILLETTE         N/A     69  44  40 W8        30.13F
HULETT         FAIR      64  46  52 W7        30.14S
NEWCASTLE      FAIR      59  45  58 SW6       30.16S

$$
WYZ014>020-022>026-101>103-271700-
CENTRAL WYOMING

CITY           SKY/WX    TMP DP  RH WIND       PRES   REMARKS
BIG PINEY      FAIR      50  39  66 S5        30.38S
PINEDALE       FAIR      52  39  62 NW5       30.39S
DUBOIS         FAIR      55  37  50 NW9       30.34R
LANDER         FAIR      59  38  45 CALM      30.25S
RIVERTON       FAIR      57  42  57 VRB3      30.27R
CASPER         FAIR      63  44  50 SW17      30.24S
DOUGLAS        FAIR      59  44  57 NW6       30.21F

$$
WYZ021-027>030-104>119-271700-
SOUTHERN WYOMING

CITY           SKY/WX    TMP DP  RH WIND       PRES   REMARKS
EVANSTON       FAIR      55  39  54 CALM      30.37S
FORT BRIDGER   FAIR      53  39  58 N3        30.40S
ROCK SPRINGS   FAIR      52  44  74 CALM      30.37R
DIXON          FAIR      54  37  52 SE3       30.39S
RAWLINS        FAIR      53  38  56 SE3       30.36S
SARATOGA       FAIR      57  34  41 S13       30.38S
LARAMIE        FAIR      54  38  54 CALM      30.35F
CHEYENNE       FAIR      70  33  25 NW9       30.26F
TORRINGTON     FAIR      57  43  59 CALM      30.17S
PINE BLUFFS    FAIR      68  39  34 N5        30.22F

$$




USA.gov is the U.S. government's official web portal to all federal, state and local government web resources and services.